YAOGAN-30 R

导读

YAOGAN-30 R(遥感三十号R卫星)是中国于北京时间2020年3月24日在西昌卫星发射中心,由长征二号丙运载火箭以“一箭三星”方式送入预定轨道的遥感卫星,属于遥感三十号卫星组网工程。该卫星主要用于开展电磁环境探测及相关科学实验,同时可服务于土地勘测、农业监测和灾害应急响应等领域,进一步完善了我国遥感卫星组网性能,任务圆满成功,也是中科院微小卫星创新研究院2020年度首发卫星任务。

基本信息
目录编号:
45460
目录名称:
YAOGAN-30 R
国际标识:
2020-021A
轨道中心:
EARTH
卫星名称:
YAOGAN-30 R
卫星全名:
--
卫星状态:
在轨 (已飞行2274 天)
发射日期:
2020-03-24 UTC
国别 :
中国 (CN)
星等 :
--
轨道信息
数据来源 国际轨道数据
星历时间: 2026-06-14T23:22:15+0800
8小时前
查看轨道信息
半长轴: 6936.678km
偏心率: 0.0003844
轨道倾角: 34.995°
近地点辐角 349.884°
升交点赤经 226.401°
平近点角 10.179°
近地点: 555.874km
远地点: 561.208km
周期: 95.827分钟
每日圈数: 15.02711
详细信息
使用方式:
暂无
2D轨道图
3D轨道图
轨道高度分析图
轨道倾角分析图
轨道综合分析图
查看轨道综合分析图